Stations météo

Publicité
Briancon, France (7593): Température de l'air & dewpoint: 11.08.2019 16:00:00 - 17.08.2019 16:00:00 (CEST)Briancon, France (7593): Vitesse du vent: 11.08.2019 16:00:00 - 17.08.2019 16:00:00 (CEST)Briancon, France (7593): Direction du vent: 11.08.2019 16:00:00 - 17.08.2019 16:00:00 (CEST)Briancon, France (7593): Quantités de précipitations: 11.08.2019 16:00:00 - 17.08.2019 16:00:00 (CEST)
Date & Time tt [°C] td [°C] ff [km/h] ff [knt] dd rr [mm]
17.08.2019 16:00:00 28,6 1,1 18 10 WSW 0,0
17.08.2019 15:00:00 28,3 1,7 19 10 WSW 0,0
17.08.2019 14:00:00 26,5 2,4 16 9 WSW 0,0
17.08.2019 13:00:00 25,9 2,5 16 9 WSW 0,0
17.08.2019 12:00:00 23,0 4,5 5 3 NNE 0,0
17.08.2019 11:00:00 21,2 6,3 4 2 SW 0,0
17.08.2019 10:00:00 17,2 5,5 3 2 SW 0,0
17.08.2019 09:00:00 14,0 4,6 3 1 SSE 0,0
17.08.2019 08:00:00 10,7 4,8 2 1 E 0,0
17.08.2019 07:00:00 9,9 3,8 0 0 N 0,0
17.08.2019 06:00:00 10,4 4,3 3 1 ESE 0,0
17.08.2019 05:00:00 10,7 4,2 0 0 N 0,0
17.08.2019 04:00:00 11,6 4,1 0 0 N 0,0
17.08.2019 03:00:00 12,1 4,8 3 1 ESE 0,0
17.08.2019 02:00:00 13,0 4,7 2 1 E 0,0
17.08.2019 01:00:00 14,2 4,7 0 0 N 0,0
17.08.2019 00:00:00 14,5 4,5 2 1 SW 0,0
16.08.2019 23:00:00 15,2 3,6 3 2 E 0,0
16.08.2019 22:00:00 16,9 3,2 3 2 E 0,0
16.08.2019 21:00:00 19,8 2,6 6 4 E 0,0
16.08.2019 20:00:00 22,4 2,5 6 3 SSW 0,0
16.08.2019 19:00:00 25,5 2,8 15 8 WSW 0,0
16.08.2019 18:00:00 25,9 3,2 13 7 SW 0,0
16.08.2019 17:00:00 24,5 2,6 15 8 SSW 0,0
16.08.2019 16:00:00 25,4 2,1 19 10 SW 0,0
16.08.2019 15:00:00 26,5 1,0 23 12 WSW 0,0
16.08.2019 14:00:00 24,9 1,1 23 12 WSW 0,0
16.08.2019 13:00:00 24,1 -2,5 13 7 WSW 0,0
16.08.2019 12:00:00 23,4 -3,1 11 6 WSW 0,0
16.08.2019 11:00:00 20,4 -0,9 6 3 SW 0,0
16.08.2019 10:00:00 16,1 -2,0 6 3 SSE 0,0
16.08.2019 09:00:00 12,4 -1,2 2 1 W 0,0
16.08.2019 08:00:00 9,2 -1,0 2 1 E 0,0
16.08.2019 07:00:00 7,5 -0,2 0 0 N 0,0
16.08.2019 06:00:00 9,1 0,8 3 2 SE 0,0
16.08.2019 05:00:00 10,2 1,3 4 2 ESE 0,0
16.08.2019 04:00:00 11,9 1,2 13 7 ENE 0,0
16.08.2019 03:00:00 12,7 2,2 13 7 ENE 0,0
16.08.2019 02:00:00 13,9 2,8 16 9 ENE 0,0
16.08.2019 01:00:00 13,6 3,4 12 7 E 0,0
16.08.2019 00:00:00 13,9 4,5 8 4 ENE 0,0
15.08.2019 23:00:00 16,2 4,6 8 5 E 0,0
15.08.2019 22:00:00 17,5 4,4 12 7 ENE 0,0
15.08.2019 21:00:00 18,2 4,7 8 5 NNE 0,0
15.08.2019 20:00:00 19,6 4,1 11 6 NNE 0,0
15.08.2019 19:00:00 21,5 2,7 9 5 NNE 0,0
15.08.2019 18:00:00 23,2 2,6 9 5 N 0,0
15.08.2019 17:00:00 24,0 3,3 7 4 W 0,0
15.08.2019 16:00:00 25,6 4,1 16 9 WSW 0,0
15.08.2019 15:00:00 26,6 4,4 19 10 WSW 0,0
15.08.2019 14:00:00 24,9 3,5 21 12 SW 0,0
15.08.2019 13:00:00 23,6 4,0 22 12 WSW 0,0
15.08.2019 12:00:00 21,6 3,7 9 5 W 0,0
15.08.2019 11:00:00 18,3 4,5 4 2 W 0,0
15.08.2019 10:00:00 14,6 4,3 3 2 S 0,0
15.08.2019 09:00:00 12,8 4,5 0 0 N 0,0
15.08.2019 08:00:00 11,6 4,1 3 1 ESE 0,0
15.08.2019 07:00:00 8,8 3,0 0 0 N 0,0
15.08.2019 06:00:00 9,4 3,4 6 4 E 0,0
15.08.2019 05:00:00 9,4 3,1 5 3 SE 0,0
15.08.2019 04:00:00 9,2 3,2 2 1 S 0,0
15.08.2019 03:00:00 10,0 3,3 0 0 N 0,0
15.08.2019 02:00:00 10,7 3,2 3 2 NE 0,0
15.08.2019 01:00:00 11,4 3,4 0 0 N 0,0
15.08.2019 00:00:00 12,6 3,5 2 1 SW 0,0
14.08.2019 23:00:00 15,6 3,7 6 3 ENE 0,0
14.08.2019 22:00:00 17,3 3,6 11 6 ENE 0,0
14.08.2019 21:00:00 18,6 3,6 12 7 NE 0,0
14.08.2019 20:00:00 20,3 2,6 13 7 NE 0,0
14.08.2019 19:00:00 22,7 -0,1 5 3 NNW 0,0
14.08.2019 18:00:00 25,9 1,9 15 8 WSW 0,0
14.08.2019 17:00:00 26,7 0,4 14 8 SW 0,0
14.08.2019 16:00:00 26,2 -2,5 13 7 SW 0,0
14.08.2019 15:00:00 25,8 -2,8 8 5 W 0,0
14.08.2019 14:00:00 24,5 -4,8 6 4 N 0,0
14.08.2019 13:00:00 23,3 -4,0 6 4 NE 0,0
14.08.2019 12:00:00 21,5 -3,1 5 3 W 0,0
14.08.2019 11:00:00 16,3 -0,4 4 2 W 0,0
14.08.2019 10:00:00 13,0 1,3 3 1 WSW 0,0
14.08.2019 09:00:00 10,2 -0,1 2 1 NE 0,0
14.08.2019 08:00:00 8,2 -1,1 2 1 ESE 0,0
14.08.2019 07:00:00 6,5 -3,2 2 1 NW 0,0
14.08.2019 06:00:00 6,5 -2,4 2 1 SSE 0,0
14.08.2019 05:00:00 8,3 -2,4 4 2 S 0,0
14.08.2019 04:00:00 8,7 -2,0 3 2 ESE 0,0
14.08.2019 03:00:00 10,2 -1,2 6 3 E 0,0
14.08.2019 02:00:00 11,0 -0,5 7 4 E 0,0
14.08.2019 01:00:00 11,9 0,3 10 5 ENE 0,0
14.08.2019 00:00:00 14,0 0,2 11 6 E 0,0
13.08.2019 23:00:00 14,3 1,2 13 7 E 0,0
13.08.2019 22:00:00 15,0 1,5 8 4 NNE 0,0
13.08.2019 21:00:00 16,5 1,4 10 5 NNE 0,0
13.08.2019 20:00:00 18,0 1,0 7 4 NNE 0,0
13.08.2019 19:00:00 20,6 2,4 9 5 NW 0,0
13.08.2019 18:00:00 21,7 2,9 11 6 NW 0,0
13.08.2019 17:00:00 23,3 2,7 10 6 W 0,0
13.08.2019 16:00:00 23,5 1,7 11 6 WNW 0,0
13.08.2019 15:00:00 22,8 0,6 7 4 NNW 0,0
13.08.2019 14:00:00 22,0 0,5 5 3 NNW 0,0
13.08.2019 13:00:00 21,2 -0,8 8 4 N 0,0
13.08.2019 12:00:00 19,4 -1,2 7 4 E 0,0
13.08.2019 11:00:00 18,3 -0,1 6 3 NE 0,0
13.08.2019 10:00:00 16,9 1,7 2 1 E 0,0
13.08.2019 09:00:00 12,2 3,4 3 2 S 0,0
13.08.2019 08:00:00 9,6 2,9 4 2 SSE 0,0
13.08.2019 07:00:00 8,2 2,2 6 3 ENE 0,0
13.08.2019 06:00:00 8,9 2,0 6 3 E 0,0
13.08.2019 05:00:00 9,5 2,3 3 2 E 0,0
13.08.2019 04:00:00 11,4 2,4 15 8 ENE 0,0
13.08.2019 03:00:00 11,6 2,3 12 6 E 0,0
13.08.2019 02:00:00 11,4 2,7 11 6 ENE 0,0
13.08.2019 01:00:00 12,7 2,5 9 5 ENE 0,0
13.08.2019 00:00:00 14,2 3,3 7 4 ENE 0,0
12.08.2019 23:00:00 15,1 4,2 11 6 NNE 0,0
12.08.2019 22:00:00 16,0 5,9 9 5 NNE 0,0
12.08.2019 21:00:00 17,0 5,0 16 9 NNE 0,0
12.08.2019 20:00:00 17,9 5,5 11 6 NNE 0,0
12.08.2019 19:00:00 18,6 8,0 10 6 NNE 0,0
12.08.2019 18:00:00 20,5 11,7 7 4 NNW 0,0
12.08.2019 17:00:00 19,6 12,8 16 8 WSW 0,0
12.08.2019 16:00:00 19,3 11,6 7 4 W 0,0
12.08.2019 15:00:00 16,5 10,8 5 3 SW 0,2
12.08.2019 14:00:00 18,2 9,0 17 9 SSW 0,4
12.08.2019 13:00:00 19,7 11,7 19 10 SW 0,0
12.08.2019 12:00:00 21,0 11,9 13 7 SW 0,0
12.08.2019 11:00:00 18,7 13,3 16 8 SW 0,0
12.08.2019 10:00:00 16,3 13,6 10 5 E 1,2
12.08.2019 09:00:00 17,7 13,2 0 0 N 0,0
12.08.2019 08:00:00 18,2 13,1 4 2 SSW 0,0
12.08.2019 07:00:00 16,2 11,8 7 4 ENE 0,0
12.08.2019 06:00:00 16,1 13,0 3 1 ENE 0,0
12.08.2019 05:00:00 16,9 13,2 4 2 NE 0,0
12.08.2019 04:00:00 17,7 13,4 4 2 N 0,0
12.08.2019 03:00:00 18,2 12,9 5 3 E 0,0
12.08.2019 02:00:00 18,3 10,9 4 2 E 0,0
12.08.2019 01:00:00 18,1 8,6 3 2 ENE 0,0
12.08.2019 00:00:00 20,4 8,4 5 3 SW 0,0
11.08.2019 23:00:00 22,6 7,6 13 7 SSW 0,0
11.08.2019 22:00:00 23,4 6,2 9 5 S 0,0
11.08.2019 21:00:00 24,7 6,4 16 9 S 0,0
11.08.2019 20:00:00 25,5 7,6 14 8 S 0,0
11.08.2019 19:00:00 26,9 7,9 18 10 SSW 0,0
11.08.2019 18:00:00 27,5 7,9 18 10 SW 0,0
11.08.2019 17:00:00 27,7 8,0 24 13 WSW 0,0
11.08.2019 16:00:00 29,2 7,1 23 13 SW 0,0

tt = Température de l'air
td = dewpoint
ff = Vitesse du vent
dd = Direction du vent
rr = Quantités de précipitations

stations d'obs. à proximité